Regional Weather Roundup
Issued by NWS Sterling, VA

Home | Current Version | Previous Version | Text Only | Print | Product List | Glossary On
Versions: 1 2 3 4 5 6 7 8 9 10 11 12 13 14 15 16 17 18 19 20 21 22 23 24 25 26 27 28
000
ASUS41 KLWX 201611
RWRLWX

REGIONAL WEATHER ROUNDUP
NATIONAL WEATHER SERVICE BALTIMORE MD/WASHINGTON DC
1100 AM EST TUE FEB 20 2018

Note: "FAIR" indicates few or no clouds below 12,000 feet
with no significant weather and/or obstructions to visibility.
 TC=TEMPERATURE CELSIUS

 * =Non NWS site. Station does not report precipitation (e.g. rain,
    snow, etc.), thunder, or fog.

DCZ001-MDZ009-015-VAZ040>042-051-053>054-201700-
WASHINGTON METRO

CITY           SKY/WX    TMP DP  RH WIND       PRES   REMARKS
WASHINGTON NAT PTSUNNY   63  56  78 S10       30.37F
DULLES         PTSUNNY   62  56  80 S12       30.36F
ANDREWS AFB    FAIR      70  59  68 SW15      30.36F
FT BELVOIR     FAIR      66  57  72 S9        30.37F
COLLEGE PARK*  FAIR      64  55  74 S5        30.36F
LEESBURG*      FAIR      63  55  77 SW7       30.36F
MANASSAS*      FAIR      68  58  70 SW9       30.37F
GAITHERSBURG*  FAIR      65  56  72 SW6       30.36F

$$

MDZ006>007-011-014-201700-
BALTIMORE METRO

CITY           SKY/WX    TMP DP  RH WIND       PRES   REMARKS
BWI AIRPORT    PTSUNNY   65  57  75 SW10      30.35F
MD SCIENCE CTR   N/A     65  56  72 MISG      30.38F
MARTIN STATE   PTSUNNY   54  54 100 SE6       30.38S
ANNAPOLIS      FAIR      71  60  68 SW8G18    30.35F
FORT MEADE*    FAIR      64  55  72 SW10      30.38F

$$

MDZ012-015-019>023-201700-
MARYLAND EASTERN SHORE

CITY           SKY/WX    TMP DP  RH WIND       PRES   REMARKS
OCEAN CITY     CLOUDY    62  59  90 SW8       30.44F
SALISBURY      CLOUDY    62  60  93 SW14G25   30.43S FOG
BAY BRIDGE AP* FAIR      61  55  82 SE13      30.37F
CAMBRIDGE*     CLOUDY    59  57  94 S10G20    30.41F
EASTON*        CLOUDY    59  57  94 SW15      30.43F

$$

MDZ017>025-201700-
SOUTHERN MARYLAND

CITY           SKY/WX    TMP DP  RH WIND       PRES   REMARKS
PATUXENT RIVER NOT AVBL
ST INIGOES     CLOUDY    57  42  57 S5        30.43S
LEONARDTOWN*   CLOUDY    59  55  88 SW12      30.43F

$$

MDZ003>005-201700-
NORTH CENTRAL MARYLAND

CITY           SKY/WX    TMP DP  RH WIND       PRES   REMARKS
FREDERICK*     SUNNY     61  54  77 SW10      30.38F
HAGERSTOWN APT FAIR      62  52  69 SW5       30.31F
WESTMINSTER*   FAIR      63  55  77 SW8       30.34F

$$

MDZ501>502-201700-
WESTERN MARYLAND

CITY           SKY/WX    TMP DP  RH WIND       PRES   REMARKS
OAKLAND*       FAIR      64  50  59 SW10G24   30.33S
CUMBERLAND*    NOT AVBL

$$

VAZ025>031-201700-
SHENANDOAH VALLEY

CITY           SKY/WX    TMP DP  RH WIND       PRES   REMARKS
WINCHESTER*    FAIR      64  54  68 SW9       30.34F
FRONT ROYAL*   FAIR      70  55  60 SW9G16    30.33S
LURAY*         FAIR      70  55  60 S13       30.35F
NEW MARKET*    FAIR      68  54  60 SW10G18   30.34F
STAUNTON*      FAIR      68  56  64 SW7       30.40S
WAYNESBORO*    FAIR      71  55  57 SW9G16    30.38F

$$

WVZ021-048>050-054>055-201700-
EASTERN WEST VIRGINIA PANHANDLE

CITY           SKY/WX    TMP DP  RH WIND       PRES   REMARKS
MARTINSBURG    FAIR      69  54  58 SW15      30.30F
PETERSBURG*    FAIR      71  53  52 S14       30.30F

$$

VAZ036>039-050-201700-
CENTRAL FOOTHILLS

CITY           SKY/WX    TMP DP  RH WIND       PRES   REMARKS
CHARLOTTESVILL FAIR      69  56  62 S9        30.38F
CULPEPER*      FAIR      67  56  66 SW10      30.39S
ORANGE*        FAIR      68  57  68 S7G17     30.39F
GORDONSVILLE*  FAIR      67  59  75 S14       30.38F
WARRENTON*     FAIR      69  56  62 SW13      30.37F

$$

VAZ055>057-201700-
NORTH AND CENTRAL PIEDMONT

CITY           SKY/WX    TMP DP  RH WIND       PRES   REMARKS
FREDERICKSBRG* FAIR      66  59  79 SW14G21   30.39F
STAFFORD*      FAIR      67  61  80 S9G16     30.43F

$$

NCZ024-NYZ072-PAZ021-071-VAZ022-071-201700-
OTHER REGIONAL OBSERVATIONS

CITY           SKY/WX    TMP DP  RH WIND       PRES   REMARKS
NEW YORK CITY  CLOUDY    54  51  90 W9G16     30.36S
PHILADELPHIA   CLOUDY    54  53  97 SW13      30.37F FOG
PITTSBURGH     CLOUDY    70  54  56 SW16G24   30.20F
ROANOKE        FAIR      53  53 100 CALM      30.44F FOG
RICHMOND       FAIR      65  60  84 SW12      30.44F
RALEIGH        FOG       57  57 100 CALM      30.49R VSB 1/4

$$

ANZ530>537-201700-
MARINE OBSERVATIONS

STATION/POSITION TIME  TEMP    WIND        PRES
                       AIR SEA DIR/SP/G
                 (UTC) (F)     (DEG/KT/KT) (MB)
THOMAS PT LIGHT  1600   51 39  170/ 15/ 15   N/A
BALT KEY BRIDGE  1548   56      90/  6/  6 1028.1F
COVE POINT       1548   60     240/ 13/ 18 1030.5F
LEWISETTA        1548   60 46  240/ 15/ 19 1030.4F
SOLOMONS ISLAND  1548   57 42  220/ 15/ 19 1029.7F
PINEY POINT      1542          250/  6/  9   N/A

$$





USA.gov is the U.S. government's official web portal to all federal, state and local government web resources and services.